Location: Andrest
(43.3200°N, 0.0641°E)
Time: 09:02:13
(UTC+00:00)

Cosmos 1470 Rocket - Pass Details

Date: 01 December 2020
Orbit: 604 x 633 km, 82.5° (Epoch: 23 January)

Event Time Altitude Azimuth Distance (km) Brightness Sun altitude
Rises 17:07:22 0° 360° (N) 2,872 6.7 -7.7°
Reaches altitude 10° 17:09:45 10° 9° (N) 1,962 5.8 -8.1°
Maximum altitude 17:13:43 35° 76° (ENE) 991 4.1 -8.8°
Drops below altitude 10° 17:17:40 10° 142° (SE) 1,949 6.0 -9.5°
Sets 17:20:02 0° 152° (SSE) 2,849 6.9 -9.9°
